User: anonymous   Login
Location: Unspecified
(0.0000°N, 0.0000°E)
Time: 22:20:29
(UTC+00:00)
Language:

STARLINK-32863 - Orbit

View from above orbital plane
View from above orbital plane
View from above satellite
View from above satellite

Ground track
Ground track

The orbit is defined by the following mean orbital elements,

1 62968U          26145.52248356 +.00000000 +00000-0 +47273-3 0 00003
2 62968  53.1589 235.3912 0001054  90.2513 269.8609 15.31712671    03
Epoch (UTC): 25 May 2026 12:32:22
Eccentricity: 0.0001054
inclination: 53.1589°
perigee height: 470 km
apogee height: 471 km
right ascension of ascending node: 235.3912°
argument of perigee: 90.2513°
revolutions per day: 15.31712671
mean anomaly at epoch: 269.8609°

The dashed part of the orbit path shows where the satellite is in the earth's shadow,  

DLR